{"data":{"norad_id":64244,"epoch":"2026-05-25T04:31:23.662848Z","epoch_age_seconds":48839,"freshness":"FRESH","line1":"1 64244U 25119M   26145.18846832  .00278988  00000+0  21039-2 0  9994","line2":"2 64244  43.0002 108.2114 0001371 256.1066 103.9649 15.70858802 57273","mean_motion":15.70858802,"eccentricity":0.0001371,"inclination_deg":43.0002,"raan_deg":108.2114,"arg_perigee_deg":256.1066,"mean_anomaly_deg":103.9649,"bstar":0.0021039,"rev_number":5727,"period_min":91.669601250387,"perigee_km":355.51801178172,"apogee_km":357.36463315774,"semimajor_km":6734.5783224697,"source":"CELESTRAK","updated_at":"2026-05-25T13:38:20.353520Z"}}